Regional Weather Roundup
Issued by NWS Jackson, KY

Home | Current Version | Previous Version | Text Only | Print | Product List | Glossary On
Versions: 1 2 3 4 5 6 7 8 9 10 11 12 13 14 15 16 17 18 19 20 21 22 23 24 25 26 27 28 29 30 31 32 33 34 35 36 37 38 39 40 41 42 43 44 45 46 47 48 49 50
000
ASUS43 KJKL 210910
RWRJKL

EAST KENTUCKY HOURLY WEATHER ROUNDUP
NATIONAL WEATHER SERVICE JACKSON KY
500 AM EDT TUE APR 21 2015

NOTE: "FAIR" INDICATES FEW OR NO CLOUDS BELOW 12,000 FEET WITH
NO SIGNIFICANT WEATHER AND/OR OBSTRUCTIONS TO VISIBILITY.

* THESE REPORTS ARE NOT UNDER NWS QUALITY CONTROL AND MAY NOT
  REPORT WEATHER SUCH AS PRECIPITATION AND FOG.

KYZ079-080-083-085-087-088-110-112-115-119-120-211000
...EASTERN KENTUCKY...

CITY           SKY/WX    TMP DP  RH WIND       PRES   REMARKS
JACKSON        CLOUDY    47  35  63 CALM      29.88R
LONDON         CLOUDY    50  37  61 SW5       29.90R
SOMERSET*      CLOUDY    46  41  81 CALM      29.91S
MONTICELLO*    MOCLDY    48  46  93 CALM      29.93S
MIDDLESBORO*   CLOUDY    48  47  96 CALM      29.91S
HARLAN APT*    CLOUDY    48  39  71 W5        29.90R
HAZARD APT*    CLOUDY    48  37  66 W3        29.88S
BLACK MTN*       N/A     37  36  93 SW2         N/A
BIG SANDY*     CLOUDY    49  35  56 W7        29.87R
$$

KYZ035-036-041-042-044-050-067-078-099-211000
...CENTRAL KENTUCKY...

CITY           SKY/WX    TMP DP  RH WIND       PRES   REMARKS
MT STERLING*   MOCLDY    45  36  70 W7        29.87S
FLEMING/MASON* CLEAR     41  36  81 SW7       29.85S
DANVILLE*      PTCLDY    41  36  81 SW3       29.89S
RICHMOND*      PTCLDY    46  36  66 SW7       29.88R
LEXINGTON      CLEAR     42  35  76 S8        29.86R
FRANKFORT      CLEAR     40  34  79 SW8       29.84S WCI  34
$$

KYZ091>093-OHZ055-061-077-WVZ005-015-034-035-042-211000
...SOUTHERN OHIO/WEST VIRGINIA...

CITY           SKY/WX    TMP DP  RH WIND       PRES   REMARKS
COVINGTON      CLEAR     43  34  70 SW6       29.80S
COLUMBUS       MOCLDY    45  35  68 SW9       29.76S
DAYTON         PTCLDY    44  35  70 SW12      29.75F
WILMINGTON     MOCLDY    44  33  65 SW12      29.77F
HUNTINGTON     PTCLDY    47  36  65 SW7       29.84R
CHARLESTON     CLOUDY    50  32  50 W8        29.83R
PINEVILLE*     CLOUDY    49  41  71 MISG      29.89R
BECKLEY        MOCLDY    43  38  82 NW9       29.82R
BLUEFIELD      MOCLDY    46  38  73 W12       29.83R
$$

VAZ002-007-008-TNZ017-027-036-066-071-211000
...SOUTHWEST VIRGINIA/EAST TENNESSEE...

CITY           SKY/WX    TMP DP  RH WIND       PRES   REMARKS
WISE*          MOCLDY    45  36  70 W13G20    29.88S
JONESVILLE*    CLOUDY    48  41  76 NW6       29.91R
ABINGDON*      CLOUDY    49  45  86 W6        29.86S
BRISTOL        CLOUDY    50  45  83 SW8       29.87S
KNOXVILLE      CLEAR     48  42  80 SW7       29.90R
OAK RIDGE      PTCLDY    49  44  83 CALM      29.92R
CROSSVILLE     MOCLDY    43  40  89 SW3       29.92R
NASHVILLE      PTCLDY    45  42  89 CALM      29.93R
$$

...KEY TO REMARKS...
VSB - VISIBILITY IN MILES
WCI - WIND CHILL INDEX
HX  - HEAT INDEX

$$


USA.gov is the U.S. government's official web portal to all federal, state and local government web resources and services.